CW2927 Weather Reports


Display with metric or nautical units.
time (UTC)temp
F
wind
direction
speed
MPH
gust
MPH
rain 1hr
in
rain 24hr
in
rain mn
in
humidity
%
barometer
mb
20260902224705 70 115 3.0 9.0 0.00 0.00 0.00 73 1012.9
20260902224205 70 132 3.0 9.0 0.00 0.00 0.00 73 1013.0
20260902222704 71 100 3.0 8.0 0.00 0.00 0.00 72 1013.5
20260902222205 71 126 2.0 12.0 0.00 0.00 0.00 72 1013.5
20260902220704 71 105 4.0 9.0 0.00 0.00 0.00 71 1013.6
20260902220205 71 107 3.0 8.0 0.00 0.00 0.00 72 1013.8
20260902214705 72 129 2.0 7.0 0.00 0.00 0.00 71 1014.1
20260902214205 72 119 4.0 9.0 0.00 0.00 0.00 71 1014.1
20260902212705 73 145 3.0 7.0 0.00 0.00 0.00 71 1014.3
20260902212204 73 145 4.0 7.0 0.00 0.00 0.00 71 1014.3
20260902210705 73 117 2.0 5.0 0.00 0.00 0.00 70 1014.5
20260902210204 73 108 3.0 8.0 0.00 0.00 0.00 70 1014.5
20260902204704 73 130 5.0 9.0 0.00 0.00 0.00 69 1014.5
20260902204204 73 139 2.0 10.0 0.00 0.00 0.00 70 1014.4
20260902202705 73 124 5.0 9.0 0.00 0.00 0.00 69 1014.3
20260902202205 73 107 4.0 13.0 0.00 0.00 0.00 69 1014.3
20260902200705 74 109 4.0 18.0 0.00 0.00 0.00 69 1014.9
20260902200204 74 132 6.0 17.0 0.00 0.00 0.00 68 1015.0
20260902194705 75 124 5.0 13.0 0.00 0.00 0.00 67 1015.3
20260902194204 74 156 5.0 20.0 0.00 0.00 0.00 68 1015.3
20260902192704 75 124 6.0 12.0 0.00 0.00 0.00 68 1015.0
20260902190704 74 98 3.0 7.0 0.00 0.00 0.00 70 1015.6
20260902190204 74 128 5.0 12.0 0.00 0.00 0.00 69 1015.7
20260902184704 73 115 5.0 10.0 0.00 0.00 0.00 70 1015.8
20260902184205 73 120 5.0 12.0 0.00 0.00 0.00 70 1015.9
20260902182705 74 132 5.0 10.0 0.00 0.00 0.00 70 1016.2
20260902182206 74 125 3.0 9.0 0.00 0.00 0.00 70 1016.3
20260902180704 73 101 4.0 8.0 0.00 0.00 0.00 71 1016.5
20260902180204 73 112 5.0 12.0 0.00 0.00 0.00 70 1016.5
20260902174705 73 142 3.0 9.0 0.00 0.00 0.00 70 1016.7
20260902174205 73 116 4.0 9.0 0.00 0.00 0.00 70 1016.7
20260902172704 73 133 3.0 9.0 0.00 0.00 0.00 71 1016.7
20260902172204 73 108 4.0 10.0 0.00 0.00 0.00 72 1016.6
20260902170704 72 163 3.0 8.0 0.00 0.00 0.00 72 1017.0
20260902164704 71 126 3.0 7.0 0.00 0.00 0.00 74 1017.2
20260902164205 71 145 5.0 10.0 0.00 0.00 0.00 73 1017.3
20260902162704 72 171 3.0 10.0 0.00 0.00 0.00 72 1017.4
20260902162204 72 158 5.0 12.0 0.00 0.00 0.00 72 1017.4
20260902160704 71 127 3.0 8.0 0.00 0.00 0.00 73 1017.5
20260902160204 71 105 5.0 9.0 0.00 0.00 0.00 73 1017.5
20260902154704 71 131 3.0 8.0 0.00 0.00 0.00 72 1017.6
20260902154204 72 114 3.0 10.0 0.00 0.00 0.00 71 1017.6
20260902152204 71 134 5.0 12.0 0.00 0.00 0.00 73 1017.5
20260902150704 70 117 4.0 10.0 0.00 0.00 0.00 73 1017.6
20260902144704 70 145 3.0 7.0 0.00 0.00 0.00 75 1017.6
20260902144204 70 128 3.0 10.0 0.00 0.00 0.00 74 1017.6
20260902142705 70 131 4.0 9.0 0.00 0.00 0.00 74 1017.5
20260902142204 70 135 4.0 8.0 0.00 0.00 0.00 74 1017.5
20260902140704 70 146 5.0 9.0 0.00 0.00 0.00 74 1017.5
20260902140204 70 116 4.0 8.0 0.00 0.00 0.00 73 1017.6
20260902134704 71 89 3.0 6.0 0.00 0.00 0.00 74 1017.6
20260902134204 71 173 3.0 8.0 0.00 0.00 0.00 73 1017.6
20260902132704 70 134 3.0 12.0 0.00 0.00 0.00 74 1017.4
20260902132204 70 121 3.0 9.0 0.00 0.00 0.00 75 1017.5
20260902130204 67 134 5.0 12.0 0.00 0.00 0.00 78 1017.6
20260902124705 66 112 4.0 10.0 0.00 0.00 0.00 79 1017.6
20260902124204 66 138 5.0 23.0 0.00 0.00 0.00 79 1017.6
20260902122704 66 97 4.0 10.0 0.00 0.00 0.00 81 1017.4
20260902122204 65 133 6.0 12.0 0.00 0.00 0.00 81 1017.5
20260902120704 64 83 3.0 8.0 0.00 0.00 0.00 83 1017.6
20260902120204 64 104 3.0 7.0 0.00 0.00 0.00 84 1017.7
20260902114703 63 144 2.0 7.0 0.00 0.00 0.00 84 1017.9
20260902114204 63 121 3.0 9.0 0.00 0.00 0.00 84 1018.0
20260902112704 63 144 2.0 9.0 0.00 0.00 0.00 84 1018.1
20260902112204 63 114 2.0 8.0 0.00 0.00 0.00 84 1018.2
20260902110704 62 122 3.0 7.0 0.00 0.00 0.00 85 1018.4
20260902104704 62 156 3.0 8.0 0.00 0.00 0.00 86 1018.2
20260902104204 61 124 3.0 7.0 0.00 0.00 0.00 86 1018.1
20260902102704 61 110 2.0 6.0 0.00 0.00 0.00 86 1018.0
20260902102204 61 95 2.0 5.0 0.00 0.00 0.00 86 1017.9
20260902100704 61 123 2.0 5.0 0.00 0.00 0.00 86 1017.9
20260902100204 61 121 2.0 7.0 0.00 0.00 0.00 86 1017.8
20260902092703 60 130 1.0 3.0 0.00 0.00 0.00 86 1017.8
20260902092204 60 130 2.0 5.0 0.00 0.00 0.00 86 1017.8
20260902090704 61 106 1.0 3.0 0.00 0.00 0.00 85 1017.7
20260902090204 61 104 1.0 3.0 0.00 0.00 0.00 84 1017.8
20260902084704 61 103 1.0 3.0 0.00 0.00 0.00 84 1017.7
20260902084204 61 103 2.0 7.0 0.00 0.00 0.00 84 1017.7
20260902082703 62 120 2.0 7.0 0.00 0.00 0.00 83 1017.7
20260902082204 62 100 1.0 8.0 0.00 0.00 0.00 83 1017.6
20260902080703 62 110 2.0 6.0 0.00 0.00 0.00 84 1017.5
20260902080203 62 115 3.0 8.0 0.00 0.00 0.00 84 1017.6
20260902074706 62 100 3.0 6.0 0.00 0.00 0.00 85 1017.6
20260902074205 62 109 3.0 5.0 0.00 0.00 0.00 85 1017.6
20260902072705 62 113 0.0 2.0 0.00 0.00 0.00 85 1017.5
20260902072205 62 113 1.0 6.0 0.00 0.00 0.00 85 1017.5
20260902070706 62 101 2.0 5.0 0.00 0.00 0.00 86 1017.6
20260902070205 62 121 3.0 6.0 0.00 0.00 0.00 86 1017.6
20260902064706 61 113 1.0 5.0 0.00 0.00 0.00 87 1017.7
20260902064205 61 120 2.0 3.0 0.00 0.00 0.00 87 1017.6
20260902062705 60 85 0.0 1.0 0.00 0.00 0.00 86 1017.7
20260902062205 60 85 0.0 2.0 0.00 0.00 0.00 86 1017.6
20260902060705 60 85 0.0 2.0 0.00 0.00 0.00 86 1017.6
20260902060205 60 85 1.0 3.0 0.00 0.00 0.00 85 1017.5
20260902054705 60 84 1.0 2.0 0.00 0.00 0.00 85 1017.6
20260902054206 60 84 1.0 3.0 0.00 0.00 0.00 85 1017.5
20260902052205 60 61 0.0 2.0 0.00 0.00 0.00 84 1017.5
20260902050705 60 61 1.0 3.0 0.00 0.00 0.00 83 1017.5
20260902050205 60 60 0.0 3.0 0.00 0.00 0.00 83 1017.4
20260902044705 60 57 1.0 2.0 0.00 0.00 0.00 83 1017.3
20260902044205 60 57 1.0 3.0 0.00 0.00 0.00 83 1017.3
20260902042706 60 57 1.0 2.0 0.00 0.00 0.00 83 1017.2
20260902042205 60 57 2.0 3.0 0.00 0.00 0.00 83 1017.1
20260902040705 60 56 1.0 2.0 0.00 0.00 0.00 83 1017.0
20260902040205 60 56 0.0 5.0 0.00 0.00 0.00 83 1016.9
20260902034705 60 69 2.0 3.0 0.00 0.00 0.00 82 1016.7
20260902034205 60 69 2.0 5.0 0.00 0.00 0.00 82 1016.7
20260902032705 60 71 2.0 3.0 0.00 0.00 0.00 81 1016.6
20260902032205 60 70 2.0 6.0 0.00 0.00 0.00 81 1016.6
20260902030705 60 68 3.0 5.0 0.00 0.00 0.00 80 1016.5
20260902030205 61 75 2.0 5.0 0.00 0.00 0.00 80 1016.5
20260902024705 61 53 2.0 5.0 0.00 0.00 0.00 79 1016.6
20260902024205 61 47 3.0 6.0 0.00 0.00 0.00 79 1016.5
20260902022204 62 29 3.0 5.0 0.00 0.00 0.00 79 1016.4
20260902020705 62 64 2.0 5.0 0.00 0.00 0.00 78 1016.3
20260902020205 62 29 3.0 7.0 0.00 0.00 0.00 78 1016.3
20260902014705 63 30 2.0 5.0 0.00 0.00 0.00 77 1016.4
20260902014205 63 43 2.0 5.0 0.00 0.00 0.00 77 1016.3
20260902012705 64 49 3.0 5.0 0.00 0.00 0.00 76 1016.4
20260902010705 65 49 1.0 3.0 0.00 0.00 0.00 75 1016.3
20260902010205 65 65 2.0 6.0 0.00 0.00 0.00 75 1016.3
20260902004705 65 34 3.0 7.0 0.00 0.00 0.00 74 1016.3
20260902004207 66 67 3.0 7.0 0.00 0.00 0.00 74 1016.2
20260902002705 66 23 3.0 6.0 0.00 0.00 0.00 72 1016.1
20260902002205 67 33 4.0 7.0 0.00 0.00 0.00 72 1016.2
20260902000205 68 61 2.0 8.0 0.00 0.00 0.00 70 1016.0
20260901232704 70 57 5.0 12.0 0.00 0.00 0.00 64 1016.3
20260901232205 71 46 4.0 8.0 0.00 0.00 0.00 62 1016.3
20260901230705 73 30 2.0 3.0 0.00 0.00 0.00 50 1016.2
20260901230204 73 38 2.0 3.0 0.00 0.00 0.00 48 1016.2